Volver al catálogo

STARLINK-6374

ActivoComunicacionesVLEO
NORAD 57338·PAYLOAD·🇺🇸 United States

Lanzado Jul 16, 2023 desde Cape Canaveral Space Force Station

Loading…

Próximos Pases (próximas 24 horas)

TLE

ActualizadoSource: CelesTrak SupGP

Época: Sep 14, 2026, 21:17 UTC

1 57338C 23099L   26257.88729167  .00018808  00000+0  68136-3 0  2577
2 57338  42.9993 264.1174 0001248 262.7788 302.1931 15.27563370    13

Sigue STARLINK-6374 en tiempo real con AllMySat

Download on the App Store